Location: Gleizolles
(44.4833°N, 6.7667°E)
Time: 17:10:55
(UTC+00:00)

Tiros 1 - Pass Details

Date: 30 June 2024
Orbit: 624 x 656 km, 48.4° (Epoch: 13 July)

Event Time Altitude Azimuth Distance (km) Brightness Sun altitude
Rises 01:52:17 0° 292° (WNW) 2,909 10.4 -15.6°
Reaches altitude 10° 01:54:36 10° 290° (WNW) 2,003 9.5 -15.4°
Maximum altitude 01:59:11 66° 208° (SSW) 686 7.0 -14.9°
Drops below altitude 10° 02:03:46 10° 127° (SE) 2,012 9.7 -14.5°
Sets 02:06:06 0° 124° (SE) 2,923 10.5 -14.2°
